TimeMST,TemperatureF,Dew PointF,Humidity,Sea Level PressureIn,VisibilityMPH,Wind Direction,Wind SpeedMPH,Gust SpeedMPH,PrecipitationIn,Events,Conditions,WindDirDegrees,DateUTC
12:53 AM,82.9,57.9,42,29.84,10.0,ESE,9.2,-,N/A,,Clear,110,2013-07-19 07:53:00
1:53 AM,82.9,59.0,44,29.83,10.0,East,12.7,-,N/A,,Scattered Clouds,100,2013-07-19 08:53:00
2:53 AM,82.0,60.1,47,29.82,10.0,East,9.2,-,0.00,Rain,Light Rain,90,2013-07-19 09:53:00
3:53 AM,81.0,59.0,47,29.81,10.0,East,5.8,-,0.00,,Clear,100,2013-07-19 10:53:00
4:53 AM,81.0,60.1,49,29.82,10.0,SE,10.4,-,N/A,,Clear,140,2013-07-19 11:53:00
5:53 AM,80.1,59.0,48,29.82,10.0,SSE,3.5,-,N/A,,Clear,150,2013-07-19 12:53:00
6:53 AM,81.0,59.0,47,29.84,10.0,ESE,5.8,-,N/A,,Clear,120,2013-07-19 13:53:00
7:53 AM,84.0,60.1,44,29.85,10.0,SE,11.5,-,N/A,,Clear,130,2013-07-19 14:53:00
8:53 AM,86.0,59.0,40,29.86,10.0,East,4.6,-,N/A,,Partly Cloudy,90,2013-07-19 15:53:00
9:53 AM,86.0,59.0,40,29.86,10.0,ENE,6.9,-,N/A,,Overcast,60,2013-07-19 16:53:00
10:53 AM,87.1,57.9,37,29.86,10.0,Calm,Calm,-,N/A,,Scattered Clouds,0,2013-07-19 17:53:00
11:53 AM,89.1,57.9,35,29.84,10.0,North,3.5,-,N/A,,Partly Cloudy,360,2013-07-19 18:53:00
12:53 PM,90.0,57.9,34,29.81,10.0,Calm,Calm,-,N/A,,Partly Cloudy,0,2013-07-19 19:53:00
1:53 PM,91.0,57.9,33,29.79,10.0,South,9.2,-,N/A,,Mostly Cloudy,170,2013-07-19 20:53:00
2:41 PM,90.0,59.0,35,29.93,10.0,SSW,13.8,19.6,0.00,,Mostly Cloudy,200,2013-07-19 21:41:00
2:53 PM,91.0,59.0,34,29.77,10.0,SSW,11.5,-,0.00,,Mostly Cloudy,200,2013-07-19 21:53:00
3:53 PM,89.1,60.1,38,29.77,10.0,SSE,6.9,-,N/A,,Mostly Cloudy,150,2013-07-19 22:53:00
4:53 PM,89.1,60.1,38,29.75,10.0,ESE,6.9,-,N/A,,Clear,120,2013-07-19 23:53:00
5:53 PM,90.0,59.0,35,29.73,10.0,Calm,Calm,-,N/A,,Clear,0,2013-07-20 00:53:00
6:53 PM,89.1,59.0,36,29.75,10.0,SW,4.6,-,N/A,,Clear,230,2013-07-20 01:53:00
7:53 PM,89.1,59.0,36,29.76,10.0,South,10.4,-,N/A,,Clear,180,2013-07-20 02:53:00
8:53 PM,86.0,60.1,41,29.78,10.0,South,9.2,-,N/A,,Partly Cloudy,180,2013-07-20 03:53:00
9:53 PM,84.9,60.1,43,29.81,10.0,South,4.6,-,N/A,,Mostly Cloudy,180,2013-07-20 04:53:00
10:53 PM,84.0,60.1,44,29.81,10.0,Calm,Calm,-,N/A,,Scattered Clouds,0,2013-07-20 05:53:00
11:53 PM,82.0,64.9,56,29.81,10.0,North,8.1,-,N/A,,Scattered Clouds,350,2013-07-20 06:53:00